Regional Weather Roundup
Issued by NWS

Home | Current Version | Previous Version | Text Only | Print | Product List | Glossary On
Versions: 1 2 3 4 5 6 7 8 9 10 11 12 13 14 15 16 17 18 19 20 21 22 23 24 25 26 27 28 29 30 31 32 33 34 35 36 37 38 39 40 41 42 43 44 45 46 47 48 49 50
000
ASUS43 KFSD 172210
RWRSD

WEATHER ROUNDUP FOR SOUTH DAKOTA
NATIONAL WEATHER SERVICE SIOUX FALLS SD
400 PM CST WED JAN 17 2018

NOTE: "FAIR" INDICATES FEW OR NO CLOUDS BELOW 12,000 FEET WITH NO
SIGNIFICANT WEATHER AND/OR OBSTRUCTIONS TO VISIBILITY.


SDZ001>005-009-010-012>017-172300-
NORTHWEST AND NORTH CENTRAL SOUTH DAKOTA

CITY           SKY/WX    TMP DP  RH WIND       PRES   REMARKS
BUFFALO          N/A     35  23  61 W14       30.09S WCI  26
FAITH            N/A     39  27  62 W9        30.17R
MOBRIDGE       SUNNY     43  27  53 NW13      30.10R
$$

SDZ012>016-024>037-041>051-057-063-072>074-172300-
SOUTHWEST AND SOUTH CENTRAL SOUTH DAKOTA

CITY           SKY/WX    TMP DP  RH WIND       PRES   REMARKS
RAPID CTY ARPT SUNNY     46  28  49 SW6       30.21S
PIERRE         SUNNY     43  24  47 W9        30.17S
CUSTER         SUNNY     44  18  35 W7        30.19R
ELLSWORTH AFB  SUNNY     48  24  40 CALM      30.20S
PHILIP         SUNNY     45  27  49 W13       30.20S
PINE RIDGE     SUNNY     43  20  39 SW7       30.24F
SPEARFISH        N/A     45  23  42 NW7       30.19F
WINNER         FAIR      41  27  57 W10       30.20S
$$

SDZ004>011-016>023-039-040-172300-
NORTHEAST SOUTH DAKOTA

CITY           SKY/WX    TMP DP  RH WIND       PRES   REMARKS
ABERDEEN       SUNNY     41  24  51 W14       30.10S
WATERTOWN      SUNNY     30  19  63 SW13      30.09R WCI  20
BROOKINGS      SUNNY     29  17  61 SW13      30.12F WCI  19
SISSETON         N/A     35  20  54 W7        30.05S WCI  29
$$

SDZ017-020-022-023-036>040-048>070-172300-
SOUTHEAST SOUTH DAKOTA

CITY           SKY/WX    TMP DP  RH WIND       PRES   REMARKS
SIOUX FALLS    SUNNY     32  17  54 SW13G18   30.20S WCI  22
HURON          SUNNY     42  22  44 W8        30.15F
CHAMBERLAIN    SUNNY     41  27  56 W10       30.19R
MITCHELL       SUNNY     36  21  54 SW12      30.19S
YANKTON        SUNNY     39  18  42 SW8       30.23R
$$

ABBREVIATIONS USED IN REMARKS
   TC - TEMPERATURE IN CELSIUS
  WCI - WIND CHILL INDEX
   HX - HEAT INDEX
  VSB - VISIBILITY




USA.gov is the U.S. government's official web portal to all federal, state and local government web resources and services.